STARLINK-3081 (49152 NORAD) Tracking and Keplerian Element Data

This shows tracking and keplerian element data for the satellite.

Feedback or suggestion? Click here.




ElementValue
Catalog49152
NameSTARLINK-3081
Epoch Orbit809
Epoch Day300.83334491
Epoch Year2021
RAAN3.9892
Inclination70.0009
Eccentricity0.0004054
Argument of Perigee292.9892
Mean Anonmoly64.9868
Mean Motion15.69740833
Decay Rate-0.00031563
L11 49152U 21082Y 21300.83334491 -.00031563 00000-0 -26366-3 0 9991
L22 49152 70.0009 3.9892 0004054 292.9892 64.9868 15.69740833 8098

Live tracking and technical data element details for STARLINK-3081 (NORAD 49152). STARLINK-3081 can be tracked NOW for your location showing map with azimuth and elevation plus other details from your city location.

Track the satellite on the map from your city or location and see movement details for azimuth, elevation, latitude, longitude, range, height, and movement on the map or in text.







IsCatalogInMostPopularTable: catalog: 49152, numindb: 5
Update: records affected: 1



GetName: 49152 STARLINK-3081

Hit Count: updated at: Thu, 28 Oct 2021 12:19:54 GMT